This demonstration page uses our WeatherBlox Daily Observations layout. Learn more.

Left ArrowRight Arrow

39.01783, -85.05884

Hourly Observations for January 24, 2020

Temp ( °F °C ) Dew Point ( °F °C ) Humidity (%) Winds ( mph kmh ) Pressure ( in mb ) Visibility ( mi km ) Precip ( " mm )
12:52 am 00:52 Cloudy with Light Rain 39 3.9 32 0 76 76 ESE 7 11 29.97 1015 10 16 0.00 0.00
1:52 am 01:52 Cloudy with Light Rain 40 4.4 33 0.6 77 77 SE 9 15 29.95 1014 10 16 0.00 0.00
2:27 am 02:27 Cloudy with Light Rain 40 4.4 35 1.7 83 83 SE 12 19 29.98 1015 8 13 0.00 0.00
2:52 am 02:52 Cloudy 40 4.4 35 1.7 83 83 SE 13 20 29.94 1014 8 13 0.00 0.00
3:52 am 03:52 Cloudy with Light Rain 40 4.4 36 2.2 86 86 SE 12 19 29.93 1013 7 11 0.02 0.51
4:35 am 04:35 Cloudy with Light Rain 40 4.4 37 2.8 89 89 SE 14 22 29.95 1014 7 11 0.05 1.27
4:52 am 04:52 Cloudy with Light Rain 41 5 37 2.8 86 86 SE 15 24 29.92 1013 9 14 0.06 1.52
5:23 am 05:23 Cloudy with Light Rain 41 5 38 3.3 89 89 SE 15 24 29.94 1014 6 10 0.02 0.51
5:52 am 05:52 Cloudy with Light Rain 41 5 38 3.3 89 89 SE 9 15 29.91 1013 6 10 0.03 0.76
6:52 am 06:52 Cloudy with Light Rain 41 5 38 3.3 89 89 ESE 8 13 29.90 1013 10 16 0.05 1.27
7:13 am 07:13 Cloudy with Rain 41 5 38 3.3 89 89 ESE 9 15 29.92 1013 5 8 0.01 0.25
7:29 am 07:29 Cloudy with Light Rain 41 5 38 3.3 89 89 ESE 8 13 29.93 1013 4 6 0.02 0.51
7:37 am 07:37 Cloudy with Light Rain 41 5 38 3.3 89 89 ESE 9 15 29.92 1013 2 3 0.03 0.76
7:52 am 07:52 Cloudy with Light Rain 41 5 39 3.9 93 93 E 6 9 29.89 1012 2 3 0.05 1.27
7:58 am 07:58 Cloudy with Rain 41 5 39 3.9 93 93 ESE 8 13 29.92 1013 2 3 0.00 0.00
8:07 am 08:07 Cloudy with Light Rain 41 5 39 3.9 93 93 ESE 6 9 29.92 1013 2 2 0.02 0.51
8:41 am 08:41 Cloudy with Light Rain 42 5.6 39 3.9 89 89 SE 9 15 29.92 1013 2 3 0.05 1.27
8:52 am 08:52 Cloudy with Light Rain 42 5.6 40 4.4 92 92 SE 9 15 29.89 1012 2 3 0.06 1.52
9:52 am 09:52 Cloudy with Light Rain 43 6.1 41 5 93 93 SSE 8 13 29.90 1013 4 6 0.02 0.51
10:34 am 10:34 Cloudy with Light Rain 44 6.7 41 5 89 89 SE 9 15 29.90 1013 4 6 0.05 1.27
10:52 am 10:52 Cloudy with Light Rain 44 6.7 42 5.6 93 93 SE 7 11 29.88 1012 6 10 0.06 1.52
11:09 am 11:09 Cloudy with Light Rain 45 7.2 42 5.6 90 90 SE 12 19 29.90 1013 6 10 0.01 0.25
11:52 am 11:52 Cloudy with Light Rain 44 6.7 42 5.6 93 93 SE 9 15 29.87 1012 5 8 0.03 0.76
12:52 pm 12:52 Cloudy with Rain 45 7.2 43 6.1 93 93 S 7 11 29.85 1011 5 8 0.07 1.78
1:52 pm 13:52 Cloudy 46 7.8 43 6.1 89 89 SE 8 13 29.80 1009 8 13 0.07 1.78
2:52 pm 14:52 Cloudy 47 8.3 44 6.7 90 90 S 8 13 29.80 1009 10 16 0.00 0.00
3:27 pm 15:27 Cloudy 48 8.9 45 7.2 89 89 S 7 11 29.79 1009 10 16 0.00 0.00
3:52 pm 15:52 Mostly Cloudy 49 9.4 45 7.2 86 86 S 10 17 29.78 1008 10 16 0.00 0.00
4:22 pm 16:22 Cloudy 48 8.9 43 6.1 83 83 SSW 6 9 29.80 1009 10 16 0.00 0.00
4:34 pm 16:34 Cloudy with Light Rain 48 8.9 43 6.1 83 83 SW 12 19 29.81 1010 6 10 0.00 0.00
4:42 pm 16:42 Mostly Cloudy 47 8.3 41 5 80 80 SW 10 17 29.82 1010 10 16 0.04 1.02
4:52 pm 16:52 Mostly Cloudy 46 7.8 41 5 83 83 WSW 9 15 29.80 1009 10 16 0.04 1.02
5:52 pm 17:52 Mostly Cloudy 44 6.7 39 3.9 83 83 SW 6 9 29.82 1010 10 16 0.00 0.00
6:52 pm 18:52 Cloudy 44 6.7 39 3.9 83 83 SW 7 11 29.83 1010 10 16 0.00 0.00
7:52 pm 19:52 Cloudy with Light Rain 43 6.1 39 3.9 86 86 WSW 7 11 29.85 1011 10 16 0.00 0.00
8:21 pm 20:21 Cloudy 42 5.6 39 3.9 89 89 WSW 5 7 29.88 1012 10 16 0.01 0.25
8:49 pm 20:49 Cloudy 43 6 37 3 81 81 WSW 7 11 29.87 1012 10 16 0.01 0.25
8:52 pm 20:52 Cloudy 42 5.6 38 3.3 85 85 WSW 6 9 29.86 1011 10 16 0.01 0.25
9:52 pm 21:52 Cloudy 41 5 37 2.8 86 86 SSW 6 9 29.86 1011 10 16 0.00 0.00
10:30 pm 22:30 Cloudy 40 4.4 36 2.2 86 86 SW 6 9 29.89 1012 10 16 0.00 0.00
10:52 pm 22:52 Cloudy 40 4.4 36 2.2 86 86 SW 7 11 29.87 1011 10 16 0.00 0.00
11:52 pm 23:52 Cloudy 39 3.9 36 2.2 89 89 SW 6 9 29.87 1012 10 16 0.00 0.00

Powered by AerisWeather